RH
26 26 27 28 29 30 30 31 32 32 30 30 30 30 30 29 28 27 25 23 21 19 17 16 14 12 11 10 10 10 11 12 12 12 12 13 13 13 14 14 13 13 13 12 11 10 11 11 12 12 12 13 13 14 14 16 18 20 21 25 28 25 24 23 22 24 25 24 22 24 29 28 28 29 28 27 27 28 32 34 35 34 31 28 26 24 22 21
25 25 25 26 26 27 27 28 28 27 27 29 30 30 29 27 26 24 22 19 16 14 12 12 12 12 12 12 11 11 11 11 11 12 12 12 13 14 14 14 13 13 13 12 11 10 12 12 12 12 11 12 12 14 15 16 17 19 19 22 23 22 21 22 22 23 23 23 23 24 29 30 29 29 28 27 25 26 29 29 30 31 30 28 27 27 24 21
25 25 25 25 26 26 26 26 24 23 27 30 30 28 25 23 21 18 15 13 12 12 12 13 14 14 14 14 14 13 12 12 13 13 12 12 13 14 14 13 13 12 12 12 11 11 12 13 13 12 12 12 13 14 15 16 18 20 21 22 23 21 21 23 24 25 25 25 24 26 32 32 29 27 26 26 25 25 26 26 26 27 27 25 26 29 26 25
23 24 24 25 26 26 26 25 23 25 27 28 24 21 19 18 15 13 12 13 14 14 14 15 15 15 16 16 15 15 14 14 14 14 13 13 13 13 13 13 13 13 13 13 12 12 13 13 13 13 12 13 13 14 15 16 18 20 21 22 22 22 23 24 25 26 26 26 25 27 32 30 26 25 24 24 23 23 24 27 28 27 27 24 26 30 28 30
21 22 23 24 25 25 24 23 23 23 22 19 17 16 17 16 15 15 16 17 17 17 16 17 17 17 17 18 16 15 15 14 14 14 14 14 14 13 13 12 12 12 13 13 13 12 13 14 14 14 14 14 15 15 15 16 17 19 20 21 21 22 24 23 23 25 25 25 25 25 27 26 24 24 23 23 22 23 26 29 30 29 27 23 25 29 30 33
18 19 20 20 19 19 18 17 17 15 14 14 15 16 17 16 16 17 18 18 19 18 17 17 18 18 18 18 18 17 14 13 13 14 14 14 14 13 12 11 11 11 11 11 11 11 11 11 12 13 13 13 14 14 15 15 17 19 20 21 22 24 24 24 24 25 25 24 24 24 24 24 23 23 24 24 24 25 28 31 31 30 28 24 25 30 32 35
17 17 18 18 17 15 14 13 13 12 13 15 17 18 18 17 18 19 19 20 20 19 18 18 18 18 18 19 18 17 15 13 13 13 13 13 13 13 11 10 10 10 10 10 10 10 10 10 11 12 12 13 14 14 15 15 16 18 20 20 22 24 24 24 25 25 25 25 25 25 25 25 24 24 25 26 26 27 29 30 31 31 32 30 30 32 34 34
18 18 18 18 16 15 14 13 13 14 16 18 19 20 20 20 19 20 20 21 20 20 20 19 19 19 19 19 18 17 16 15 14 13 13 13 13 12 11 11 11 11 10 11 11 10 10 11 11 12 13 15 15 16 17 16 17 18 19 19 20 21 22 22 23 23 23 23 24 24 24 24 23 24 25 26 27 28 28 29 30 31 32 33 33 34 34 34
18 18 18 17 17 17 17 17 18 19 20 20 21 21 21 21 20 21 21 21 21 22 21 21 21 21 20 19 18 17 17 16 15 15 15 14 13 12 12 12 12 11 11 12 12 12 12 12 13 13 15 17 17 18 20 18 18 20 20 20 21 21 21 21 21 21 21 20 20 21 21 22 21 21 23 25 26 26 26 26 27 29 30 31 33 34 35 35
19 18 18 18 18 19 19 19 19 20 20 20 20 20 19 19 19 19 19 19 20 21 21 21 21 20 20 20 19 18 17 17 17 17 17 15 14 13 12 12 12 13 13 14 14 14 15 15 15 15 17 19 19 20 21 20 20 21 21 22 22 22 22 21 20 20 19 18 19 19 20 21 21 21 22 24 25 24 24 24 25 26 27 28 29 31 32 33
21 18 18 18 18 19 19 19 18 18 19 19 19 18 18 18 18 17 16 16 16 18 19 21 21 19 19 19 19 17 17 17 18 18 17 16 16 16 15 14 14 15 15 16 16 17 18 18 18 17 18 21 22 24 24 23 23 23 23 23 23 23 22 22 22 21 20 20 20 20 20 23 24 24 24 25 25 24 23 23 24 25 26 27 28 29 30 31
24 20 18 20 19 20 20 20 20 20 20 20 21 20 20 20 19 18 17 16 15 16 17 19 20 19 18 18 17 16 16 16 16 16 16 17 17 18 17 17 18 18 18 19 19 20 20 22 22 21 21 21 23 24 25 25 25 25 25 25 26 25 25 26 25 24 22 21 21 19 20 25 27 27 28 28 26 25 24 25 25 26 27 29 30 30 31 32
27 24 22 23 23 22 23 23 23 23 23 23 24 24 24 23 22 21 20 19 18 17 16 17 18 19 18 17 16 16 16 15 14 14 14 15 16 16 17 18 18 19 19 19 20 19 20 22 23 23 22 21 22 22 22 23 23 23 23 22 23 22 23 24 23 22 20 19 20 18 21 26 27 27 28 28 27 25 26 26 27 28 30 31 33 34 34 34
29 27 24 26 26 23 23 24 24 25 25 25 25 25 25 25 24 23 23 23 22 20 19 17 17 18 18 17 17 16 15 15 14 14 13 13 13 14 15 15 16 16 17 17 17 17 18 20 21 23 22 21 22 21 20 21 20 20 20 20 19 19 20 21 21 21 19 20 21 20 23 28 27 27 28 27 27 26 27 28 28 30 32 33 35 36 37 36
28 28 25 26 25 22 23 24 25 25 25 25 25 24 24 24 24 23 23 24 23 23 22 20 19 17 16 17 16 16 16 15 15 13 13 13 12 13 14 14 14 14 14 14 15 15 17 18 20 21 22 21 21 21 20 19 19 19 20 21 19 19 20 21 22 23 22 22 23 23 26 29 28 28 29 28 29 29 30 31 31 33 34 35 36 37 39 39
25 26 25 24 22 21 24 25 25 25 26 26 25 24 24 24 24 23 24 24 24 24 23 22 21 18 17 16 15 15 15 14 14 13 13 13 13 14 15 15 15 15 14 14 14 14 15 16 18 19 20 20 19 19 18 18 18 18 18 19 19 18 20 22 23 25 24 24 25 25 27 29 29 28 29 29 30 30 31 32 34 36 37 38 38 39 40 41
23 23 23 23 21 21 24 25 25 26 25 25 25 24 23 24 23 24 26 26 24 24 23 23 22 19 18 17 16 15 14 13 13 14 14 14 15 15 15 16 16 15 15 15 16 16 16 16 17 18 18 18 18 18 18 19 18 18 18 18 19 19 20 22 23 25 26 27 28 28 29 30 29 28 29 29 30 31 32 33 35 37 38 39 41 42 42 43
25 24 24 23 21 23 25 25 26 26 25 25 24 24 24 24 23 25 27 27 25 24 23 22 22 20 19 19 17 15 14 14 14 14 14 15 15 15 15 15 15 15 16 16 17 17 17 17 18 17 17 18 18 18 18 20 17 17 18 18 20 21 21 22 25 27 28 29 29 30 31 31 29 30 30 31 32 33 34 35 37 38 40 41 42 43 44 45
27 27 27 25 24 25 27 26 27 26 24 24 24 24 24 24 25 25 26 26 25 24 23 22 22 21 21 20 19 17 16 15 15 16 15 15 14 14 14 14 14 15 14 14 15 17 17 17 17 17 17 18 18 17 17 18 18 19 19 19 20 21 23 25 27 28 28 29 30 31 32 32 31 31 32 33 34 36 37 38 40 41 42 43 44 45 46 47
29 29 28 28 27 26 27 27 27 25 24 24 24 24 25 25 26 26 26 26 25 24 24 23 22 21 21 20 19 18 18 18 18 18 17 16 15 15 15 15 15 14 14 15 15 17 17 16 16 16 17 17 17 18 18 19 20 20 21 22 22 23 27 29 29 31 31 32 32 32 33 34 34 33 34 36 37 38 40 41 42 42 43 44 46 47 48 50
29 28 28 28 27 26 26 26 26 25 25 24 24 25 26 26 26 26 26 26 25 24 23 22 21 21 20 20 20 20 20 20 19 19 18 17 16 16 16 16 16 14 17 20 18 17 17 15 16 18 19 19 19 21 21 22 23 23 23 24 25 26 29 31 31 33 32 33 34 33 35 37 36 35 37 39 40 41 43 43 44 45 45 46 48 49 50 51
28 28 27 27 27 26 25 25 25 25 25 25 26 27 27 27 26 26 26 24 23 22 21 21 20 20 20 21 22 21 21 20 19 17 16 16 16 16 16 16 16 16 19 21 18 17 17 17 19 21 21 22 23 23 24 25 25 25 24 25 27 28 30 32 33 33 33 33 35 36 38 39 38 37 39 41 43 45 46 46 46 46 47 47 48 49 49 50
28 27 27 27 27 26 25 24 24 24 26 27 28 29 29 27 25 25 25 21 20 21 21 21 21 21 21 22 22 21 20 20 18 18 17 17 17 17 17 17 18 19 19 19 17 16 17 18 21 22 23 23 22 23 24 25 24 24 24 25 28 28 29 32 33 34 33 34 36 37 39 41 40 39 41 43 45 47 47 48 48 48 48 48 49 50 50 50
28 28 27 27 26 26 24 23 24 26 27 29 30 29 27 25 23 24 22 19 20 22 22 22 22 22 23 23 22 20 19 18 19 19 18 18 18 18 18 18 18 17 18 20 18 16 17 19 22 23 24 23 22 23 24 23 22 23 24 24 25 26 27 30 32 33 34 36 36 37 41 43 42 41 42 44 45 47 48 49 50 50 51 51 51 52 52 52
29 28 27 26 26 24 23 24 27 28 29 30 29 27 24 22 21 21 19 19 21 23 23 24 24 24 22 20 18 16 17 18 17 18 17 16 16 16 17 16 16 15 18 22 19 17 19 23 25 24 22 23 22 22 23 23 22 22 24 25 26 26 27 30 31 33 37 39 38 37 41 43 43 44 44 45 46 48 50 50 51 52 52 52 52 53 54 54
28 29 28 26 24 23 24 27 30 30 31 30 26 23 20 18 18 18 18 21 22 23 23 23 23 21 18 15 14 14 16 16 15 16 15 13 14 16 15 15 17 18 21 23 20 20 22 24 25 23 22 23 22 22 24 26 24 25 27 28 29 28 29 32 32 35 38 39 37 38 40 43 46 48 45 46 48 49 51 51 52 53 53 54 55 56 57 59
28 28 26 25 24 25 27 30 32 31 30 25 20 18 15 15 16 17 19 20 20 21 22 21 19 17 13 12 12 13 14 14 13 15 14 13 14 15 15 16 18 20 24 22 19 23 25 23 23 23 22 23 24 25 27 29 27 28 30 31 30 31 33 34 35 38 38 38 38 39 41 42 45 47 45 46 49 51 52 53 54 56 57 58 60 62 64 65
27 26 25 26 27 29 31 32 31 28 23 17 15 13 11 14 16 17 18 17 17 20 20 18 15 12 11 11 11 12 13 13 14 15 14 15 16 16 17 20 20 21 25 23 19 24 27 24 24 26 26 26 27 28 29 30 28 30 32 32 32 34 35 36 37 39 38 40 40 40 43 43 44 49 50 49 52 55 56 58 59 60 62 63 65 67 68 69
27 27 28 30 31 32 32 31 26 20 15 13 11 10 11 14 16 16 17 15 15 17 17 14 12 10 12 13 13 13 13 14 16 15 14 16 17 17 19 22 22 23 25 24 21 23 26 27 29 29 27 27 29 30 30 29 28 30 32 32 33 34 35 35 36 39 41 42 40 39 43 43 45 54 57 55 59 61 62 63 63 64 65 66 67 69 70 72
29 30 31 32 32 31 28 23 17 12 11 10 9 13 15 15 15 15 14 13 13 15 13 12 12 13 15 16 15 15 16 16 17 16 16 17 17 19 21 22 22 23 23 24 25 25 27 31 32 31 29 29 31 32 33 31 30 33 32 31 32 32 33 34 36 40 43 42 40 41 45 45 47 54 57 60 62 62 63 63 64 65 67 70 72 74 77 80
30 31 32 31 28 25 20 15 11 10 10 10 12 16 16 15 16 14 12 12 13 14 12 13 17 18 18 18 15 17 19 19 19 19 20 20 21 21 22 23 23 22 21 21 23 24 27 30 31 30 31 31 30 29 31 32 32 33 30 29 31 30 31 34 38 42 42 40 40 42 45 46 48 53 58 61 63 62 65 67 68 71 74 78 81 84 86 89
31 30 29 26 21 17 13 9 10 10 11 12 15 15 14 13 13 12 12 12 12 14 14 16 20 20 20 19 17 18 21 20 21 24 24 24 25 25 25 25 24 22 20 19 18 19 23 27 28 29 30 29 27 26 28 31 30 29 28 29 31 31 31 33 36 38 38 39 42 44 47 48 51 58 63 64 66 68 72 75 78 80 82 85 88 90 92 93
28 25 23 18 13 11 9 8 10 11 12 14 14 12 14 13 10 12 15 12 12 15 18 19 20 20 20 18 17 21 22 21 23 26 27 27 26 25 26 25 24 22 20 20 19 19 21 24 25 27 27 28 29 28 29 31 29 29 31 34 35 35 38 40 38 37 39 42 45 48 52 56 62 69 71 71 74 78 81 84 86 88 89 90 91 93 95 96
19 16 13 11 9 9 9 10 11 11 12 13 11 12 15 13 11 13 14 13 16 19 20 21 21 19 19 19 20 23 23 23 24 25 26 25 23 23 24 24 24 24 23 22 23 24 24 24 25 27 29 32 33 33 35 34 33 35 36 37 41 43 47 50 47 46 50 51 52 56 62 68 74 78 77 78 82 85 87 90 91 93 94 95 96 96 97 97
10 9 10 10 10 9 10 11 10 10 11 11 12 14 14 13 12 13 15 18 20 20 21 22 20 18 19 21 24 25 23 22 24 23 23 23 23 24 25 25 26 27 27 27 27 27 28 28 30 32 35 37 38 41 43 42 42 44 45 47 53 56 58 60 59 62 65 64 64 68 73 78 81 82 80 83 86 89 91 93 94 95 95 94 94 93 93 94
8 10 10 10 10 8 9 11 10 10 10 11 15 16 14 14 15 15 19 22 22 22 23 22 20 20 22 23 24 25 23 21 22 22 22 24 25 26 27 29 30 32 33 34 33 33 35 37 38 41 44 46 48 51 52 53 54 54 57 61 64 65 66 68 70 69 72 74 72 73 80 84 85 86 85 86 89 90 91 92 92 91 89 87 86 84 86 88
10 11 11 10 9 8 9 10 9 10 10 12 17 17 15 16 19 21 25 27 25 25 23 21 21 22 23 22 22 24 24 22 23 23 23 25 28 31 32 34 37 40 43 44 43 44 47 48 47 47 51 53 55 58 57 59 61 61 65 68 68 68 68 72 77 75 76 78 73 72 81 86 85 86 85 82 84 84 83 86 87 85 85 85 84 83 87 90
10 11 10 9 9 9 9 9 10 10 11 16 21 22 19 21 24 28 30 30 28 24 21 20 21 21 22 22 22 26 27 25 25 25 26 30 35 39 41 42 45 49 53 54 50 50 52 53 51 51 52 53 54 57 59 61 62 63 66 65 66 69 69 70 76 77 78 79 72 67 71 75 78 81 81 79 80 82 83 86 87 85 85 86 84 83 86 88
9 11 10 9 10 10 10 10 11 11 14 19 23 23 22 24 28 31 31 30 27 22 20 21 21 21 23 24 25 29 31 31 31 33 35 38 41 46 49 51 51 53 57 56 52 51 51 51 51 50 49 50 49 52 56 56 55 56 57 57 58 61 61 62 64 66 71 73 72 68 66 73 80 80 80 82 84 87 86 85 83 81 81 81 79 77 76 75
10 11 11 11 11 12 12 11 12 14 18 21 22 23 24 26 28 30 29 28 25 21 21 22 23 25 27 29 31 34 36 38 38 39 41 43 45 50 54 57 57 56 55 53 50 50 49 48 49 46 44 46 48 50 52 52 51 51 52 54 55 54 55 57 57 60 66 69 74 75 72 78 83 78 80 84 83 82 80 76 74 73 72 71 67 65 65 63
11 12 13 11 11 12 11 12 16 20 21 21 21 25 28 28 27 27 27 27 26 24 24 26 29 31 33 35 37 39 40 41 42 42 44 47 48 50 54 59 61 59 54 49 48 50 50 48 47 45 42 43 46 48 48 47 47 48 50 53 54 54 55 57 56 59 65 67 72 77 76 77 77 72 73 75 72 70 68 67 67 65 63 62 60 61 62 61
10 12 12 10 10 10 10 15 22 22 20 21 22 25 30 29 25 25 27 28 29 29 30 32 34 36 37 38 39 41 42 42 43 44 45 48 49 50 54 57 60 61 56 48 45 47 45 40 37 35 33 34 37 39 40 40 38 38 42 45 46 49 52 54 54 58 61 62 65 69 69 69 68 65 65 64 63 63 63 64 65 63 62 62 62 63 62 58
11 12 11 11 11 10 11 17 22 22 23 25 26 27 29 28 26 26 30 31 31 31 32 34 36 37 38 40 41 42 43 43 44 44 44 47 48 49 52 53 53 53 48 39 35 36 34 30 28 27 24 25 29 31 34 36 35 36 39 42 43 45 48 51 54 56 56 57 60 61 61 63 63 62 61 60 60 61 62 64 64 64 64 63 61 59 56 54
12 13 13 13 13 12 15 19 22 25 26 25 25 26 28 29 29 29 32 34 34 33 33 34 37 37 38 41 41 40 40 40 40 40 39 40 40 42 43 43 43 40 36 33 30 30 29 27 27 28 26 25 26 29 32 33 34 38 42 44 45 47 51 54 53 53 53 58 61 59 57 61 62 59 57 56 56 59 62 63 64 64 62 59 56 54 54 54
13 13 13 14 14 14 17 20 22 25 26 24 24 26 27 29 31 32 32 33 34 34 32 33 35 35 35 35 35 34 33 32 32 34 34 33 33 35 35 37 38 35 34 32 29 27 26 24 26 29 31 29 28 31 36 36 38 41 44 46 47 50 54 53 49 49 53 57 59 58 58 60 60 56 52 51 54 59 62 62 62 60 58 56 55 55 55 54
13 15 16 16 15 15 18 19 20 23 23 24 25 27 27 27 28 30 31 31 31 32 32 32 33 32 30 30 29 28 27 27 28 31 32 32 32 31 31 32 31 30 32 30 25 24 25 24 25 27 28 29 29 32 35 38 41 44 47 49 50 53 56 52 48 51 57 58 58 59 60 59 56 53 51 53 55 58 60 60 59 59 57 56 55 54 55 54
14 17 18 18 16 17 19 20 21 23 22 23 25 26 27 27 26 27 28 28 29 30 30 31 31 30 29 28 25 25 26 26 26 29 32 31 31 29 28 28 25 25 28 28 23 22 23 23 25 27 26 25 26 27 29 33 39 44 48 51 50 53 56 54 52 55 59 60 57 56 58 56 53 52 54 56 58 57 59 60 59 59 56 54 53 54 55 55
15 17 18 18 18 20 21 21 23 25 24 24 25 26 27 27 27 27 27 27 28 28 27 28 28 28 28 27 24 23 24 23 23 29 31 30 30 28 25 24 23 22 24 25 23 23 22 22 28 30 27 24 24 25 26 29 35 40 44 48 49 51 54 56 56 55 58 61 56 51 52 52 51 53 55 57 57 58 60 61 59 56 53 53 55 55 55 54
14 15 16 16 18 20 21 21 22 23 24 25 25 26 27 27 27 29 29 27 26 26 25 25 25 25 25 24 21 21 22 21 22 28 31 32 32 28 23 22 22 21 22 24 24 24 22 23 31 33 28 25 26 26 27 30 34 39 42 44 46 48 51 54 53 51 53 55 50 47 49 50 50 53 55 56 58 60 61 60 56 54 53 54 56 55 53 54
13 14 15 15 17 19 20 20 20 21 23 25 24 26 27 26 26 28 29 27 24 22 22 22 21 21 21 20 20 21 21 21 21 24 29 29 28 26 23 21 23 22 22 25 27 25 20 21 31 32 25 24 28 29 30 30 32 37 40 41 43 47 49 50 49 48 49 47 44 46 51 51 50 51 53 56 58 60 59 57 54 53 54 54 53 51 51 50
12 13 13 14 18 20 20 20 21 21 22 23 24 24 24 24 25 26 26 25 24 21 21 22 20 19 20 20 21 23 23 24 23 24 27 26 23 23 21 21 24 24 23 26 30 28 23 23 28 28 20 21 28 30 29 31 34 38 40 40 43 46 47 46 46 46 46 45 46 50 52 50 47 48 51 54 56 58 57 55 53 52 52 51 50 49 49 48
13 13 13 14 18 21 21 21 21 20 21 22 24 25 24 24 24 23 20 21 23 23 23 23 22 19 19 21 22 24 24 25 25 24 24 22 20 21 20 21 24 23 23 27 29 32 31 25 25 27 21 20 27 28 29 32 35 37 38 39 42 44 44 43 43 42 42 45 49 50 47 45 44 46 49 52 54 56 57 55 52 50 49 49 49 50 50 51